Temp
18 18 19 20 20 20 21 22 22 22 22 23 23 23 24 25 25 26 27 26 26 26 26 25 25 25 25 25 24 24 21 23 25 26 27 26 25 26 25 23 24 23 23 23 21
18 18 19 20 20 20 21 22 22 22 22 23 23 23 24 25 26 27 27 27 27 26 26 25 25 25 24 24 24 21 21 24 25 26 26 27 26 25 24 24 22 23 22 22 21
18 19 19 20 20 21 21 22 22 22 23 23 23 24 24 25 26 27 27 27 26 26 26 26 25 25 24 23 22 21 23 24 25 25 26 28 26 25 24 23 23 21 20 21 20
18 19 19 20 20 21 21 22 22 22 23 23 23 24 24 25 26 27 27 27 26 26 26 26 25 25 23 23 22 23 24 24 25 25 27 27 27 25 26 26 26 24 23 21 20
19 19 19 20 20 20 21 22 22 23 23 23 23 24 24 25 27 27 27 26 26 26 26 26 25 24 23 23 23 22 23 24 26 26 28 28 27 25 24 24 24 22 22 22 21
19 19 19 20 20 20 21 22 22 23 23 23 23 24 24 23 27 27 27 27 26 26 26 25 25 25 23 23 23 23 22 24 26 27 28 26 26 27 23 23 22 22 22 22 22
19 20 20 20 20 20 21 22 22 23 23 23 23 23 24 27 27 27 27 26 26 26 25 26 25 25 23 23 23 23 24 24 26 27 27 27 25 24 24 23 22 21 22 22 22
19 20 20 20 20 20 21 22 22 23 23 23 23 23 25 27 27 27 27 26 26 25 25 26 25 25 23 23 23 23 22 23 25 27 27 26 23 23 24 24 23 23 22 22 22
19 20 20 20 20 21 21 22 22 23 23 23 23 23 25 27 28 28 27 26 26 26 25 26 25 24 23 22 22 21 23 23 24 27 26 26 24 24 24 23 23 23 23 23 22
19 20 20 20 20 21 22 23 23 23 23 23 23 22 26 27 28 28 28 26 25 25 25 25 24 21 21 21 23 23 23 23 24 26 26 26 25 23 24 24 23 23 23 23 24
19 20 20 20 20 21 22 22 22 22 22 25 25 26 27 27 27 27 27 26 25 25 23 22 22 22 23 23 25 25 24 24 25 26 27 25 25 23 24 23 23 23 23 24 24
19 20 20 20 20 21 22 22 21 21 21 26 25 25 26 26 26 26 27 26 25 23 20 21 22 24 25 25 24 24 23 23 25 26 25 25 25 24 23 24 24 24 24 25 25
19 20 20 20 20 21 22 22 22 22 20 25 26 26 27 27 26 27 26 26 24 23 21 22 24 25 25 25 25 23 23 23 25 26 26 25 25 25 25 25 25 25 25 26 26
19 20 20 20 21 22 22 22 23 23 19 23 24 27 27 26 26 28 27 27 23 24 23 23 24 25 25 25 25 23 25 26 26 24 24 25 24 24 24 23 24 25 26 26 27
19 20 20 20 20 21 22 22 23 23 21 26 25 27 27 27 27 25 27 27 23 23 23 26 24 24 25 26 26 26 27 26 26 23 24 24 23 23 24 24 24 25 27 28 28
19 20 20 20 21 21 22 23 23 19 22 25 27 25 26 25 26 26 26 27 27 24 23 25 26 26 26 28 27 28 26 24 22 22 23 24 24 23 24 25 26 26 29 30 30
19 20 20 20 21 22 22 22 17 20 22 25 25 25 25 25 26 27 26 26 26 25 23 23 24 25 27 28 28 26 25 24 24 23 24 21 23 24 26 26 25 27 31 31 31
19 20 20 21 21 21 22 19 20 21 21 23 23 24 26 25 26 27 25 25 25 24 23 24 26 28 28 29 28 26 25 23 25 23 23 23 25 26 24 25 27 30 31 31 31
19 20 21 21 21 21 21 19 21 21 22 21 23 23 24 24 26 26 25 25 25 24 25 23 25 27 28 29 29 27 26 24 20 20 22 22 24 25 23 24 25 27 28 28 29
19 20 21 21 22 21 17 16 21 22 22 20 23 25 24 24 24 25 24 25 25 24 24 25 24 26 28 28 28 28 24 25 21 24 26 23 23 23 22 22 23 22 24 26 28
19 19 19 21 21 21 17 16 21 24 23 20 21 23 25 25 24 24 25 25 25 24 23 24 23 25 27 28 28 26 25 20 20 20 22 22 23 21 21 20 22 21 24 25 27
19 16 19 20 19 14 15 17 23 23 23 22 21 21 25 25 24 24 25 25 26 25 24 23 21 23 26 27 27 27 28 22 22 24 18 20 22 21 21 21 22 22 24 25 26
18 18 18 20 17 16 18 20 23 23 23 25 24 25 24 25 25 23 24 26 26 25 25 23 22 23 26 26 27 27 25 20 18 18 20 22 22 22 21 21 22 23 24 24 25
18 15 18 19 19 18 20 21 23 24 24 26 24 25 23 23 21 23 23 26 26 26 26 26 22 24 24 26 26 29 28 25 24 23 20 20 22 22 22 21 21 22 22 23 23
18 16 18 16 17 18 20 19 21 24 25 26 26 26 24 23 22 21 22 25 26 26 25 25 25 23 24 24 25 26 25 27 28 24 27 24 21 21 20 20 21 22 22 23 23
18 17 18 17 18 17 16 19 21 23 24 25 25 27 26 23 23 23 23 24 26 24 25 21 25 24 27 27 27 25 24 24 23 21 20 20 22 21 21 22 22 22 22 22 21
17 17 17 16 15 16 16 19 21 23 25 26 26 25 24 25 26 26 27 26 26 25 23 23 23 24 26 24 26 26 24 24 22 22 21 23 21 20 21 21 21 21 21 21 21
Height
1510 1509 1508 1509 1509 1508 1507 1507 1507 1508 1508 1507 1507 1506 1504 1502 1499 1497 1497 1498 1498 1498 1499 1499 1498 1499 1499 1499 1499 1499 1509 1515 1507 1505 1500 1497 1499 1502 1504 1505 1508 1509 1510 1513 1516
1509 1509 1507 1508 1508 1508 1507 1507 1507 1507 1507 1507 1506 1505 1503 1500 1496 1496 1497 1495 1496 1497 1498 1498 1498 1498 1499 1499 1500 1501 1512 1509 1503 1499 1499 1498 1497 1501 1504 1506 1508 1509 1510 1514 1517
1508 1508 1508 1506 1507 1507 1506 1506 1506 1506 1506 1506 1505 1504 1502 1500 1497 1496 1495 1496 1496 1496 1497 1497 1497 1497 1498 1499 1501 1503 1508 1503 1499 1498 1497 1496 1500 1500 1502 1508 1505 1508 1510 1515 1520
1508 1507 1507 1506 1506 1506 1505 1505 1506 1505 1505 1505 1504 1504 1502 1500 1502 1496 1496 1497 1497 1497 1497 1497 1496 1496 1497 1500 1502 1504 1502 1501 1496 1497 1496 1494 1498 1500 1502 1504 1504 1508 1512 1516 1521
1506 1506 1505 1505 1505 1505 1504 1504 1505 1504 1504 1504 1504 1503 1501 1499 1496 1496 1496 1497 1497 1497 1497 1497 1496 1497 1499 1499 1500 1502 1502 1498 1494 1496 1494 1496 1499 1501 1505 1504 1506 1510 1515 1519 1523
1504 1504 1504 1504 1504 1504 1503 1503 1503 1503 1503 1503 1503 1502 1502 1500 1495 1496 1496 1497 1498 1498 1497 1497 1498 1498 1499 1500 1499 1502 1503 1498 1494 1494 1496 1501 1502 1502 1508 1508 1510 1513 1517 1521 1523
1503 1502 1502 1503 1503 1503 1502 1501 1502 1502 1502 1502 1502 1500 1499 1496 1494 1495 1496 1498 1499 1499 1498 1498 1498 1499 1499 1501 1501 1501 1502 1500 1498 1497 1499 1503 1508 1508 1507 1510 1511 1515 1518 1521 1523
1501 1501 1501 1501 1502 1501 1501 1500 1500 1501 1501 1501 1500 1499 1495 1493 1493 1494 1496 1498 1498 1499 1498 1497 1498 1499 1499 1500 1502 1503 1504 1516 1501 1499 1501 1504 1520 1507 1508 1508 1512 1516 1518 1519 1521
1499 1499 1499 1500 1500 1500 1499 1499 1499 1500 1500 1500 1500 1499 1493 1491 1492 1495 1496 1498 1499 1498 1497 1495 1496 1498 1501 1504 1511 1510 1521 1518 1510 1498 1500 1505 1513 1505 1508 1510 1511 1514 1517 1518 1520
1498 1497 1498 1498 1498 1498 1498 1498 1498 1498 1498 1498 1498 1502 1493 1492 1491 1493 1496 1498 1499 1498 1498 1498 1499 1502 1505 1510 1529 1520 1521 1516 1516 1502 1501 1506 1507 1504 1505 1508 1510 1512 1515 1516 1517
1496 1496 1496 1497 1497 1497 1498 1498 1500 1499 1495 1491 1491 1491 1491 1492 1491 1492 1495 1498 1501 1502 1502 1499 1505 1509 1501 1501 1502 1507 1513 1515 1506 1500 1503 1506 1506 1504 1504 1509 1508 1511 1512 1513 1512
1494 1494 1495 1495 1496 1496 1497 1498 1497 1500 1493 1487 1487 1487 1489 1492 1493 1493 1496 1500 1501 1503 1503 1505 1508 1495 1495 1499 1504 1508 1514 1516 1503 1495 1501 1505 1506 1502 1504 1501 1503 1507 1508 1508 1509
1491 1492 1493 1494 1495 1495 1496 1497 1497 1497 1495 1483 1482 1483 1487 1492 1493 1492 1496 1496 1499 1502 1504 1508 1498 1490 1497 1501 1506 1508 1513 1511 1509 1499 1500 1505 1512 1504 1500 1501 1503 1502 1503 1505 1506
1489 1491 1492 1493 1496 1494 1495 1497 1497 1496 1504 1486 1480 1479 1483 1489 1494 1489 1492 1496 1499 1500 1499 1504 1498 1496 1499 1502 1501 1515 1491 1495 1500 1510 1528 1507 1539 1510 1501 1500 1499 1497 1498 1498 1500
1487 1489 1490 1493 1493 1493 1496 1496 1495 1497 1528 1480 1477 1476 1478 1484 1491 1487 1488 1492 1496 1499 1500 1498 1495 1498 1500 1494 1490 1496 1485 1494 1500 1513 1517 1518 1531 1514 1501 1503 1496 1490 1490 1490 1494
1485 1486 1488 1491 1492 1493 1494 1494 1497 1513 1523 1482 1475 1477 1480 1483 1487 1487 1488 1490 1491 1495 1498 1494 1489 1490 1487 1480 1482 1482 1490 1500 1509 1522 1539 1521 1526 1520 1508 1495 1488 1484 1484 1486 1488
1483 1485 1487 1489 1491 1492 1494 1496 1514 1522 1488 1487 1481 1478 1479 1484 1485 1485 1487 1491 1495 1507 1511 1501 1493 1482 1481 1484 1482 1489 1503 1533 1541 1543 1541 1525 1526 1512 1492 1484 1482 1479 1478 1481 1482
1481 1483 1484 1487 1489 1491 1493 1499 1519 1499 1498 1483 1483 1482 1482 1480 1482 1483 1488 1495 1488 1494 1504 1510 1507 1479 1473 1475 1484 1493 1500 1529 1544 1550 1537 1520 1527 1505 1488 1480 1478 1479 1478 1478 1480
1480 1481 1482 1485 1487 1490 1494 1509 1504 1495 1488 1490 1483 1487 1486 1481 1484 1483 1486 1487 1485 1486 1503 1508 1500 1472 1470 1470 1474 1490 1503 1495 1530 1537 1539 1531 1513 1494 1486 1482 1480 1479 1479 1478 1477
1478 1480 1481 1483 1486 1489 1495 1506 1493 1486 1485 1488 1492 1480 1490 1487 1490 1486 1488 1478 1480 1483 1484 1492 1507 1478 1472 1470 1475 1479 1486 1511 1521 1540 1538 1536 1525 1520 1502 1494 1487 1486 1484 1483 1482
1478 1479 1479 1481 1486 1488 1501 1500 1489 1484 1485 1491 1491 1489 1480 1481 1483 1485 1484 1481 1479 1483 1484 1488 1499 1489 1476 1476 1483 1488 1495 1508 1514 1527 1541 1547 1531 1506 1502 1497 1493 1491 1486 1486 1485
1477 1479 1478 1481 1486 1491 1497 1491 1485 1484 1486 1485 1485 1486 1481 1479 1480 1481 1479 1474 1473 1475 1484 1483 1498 1505 1487 1470 1470 1473 1480 1495 1518 1523 1537 1534 1527 1499 1496 1493 1493 1491 1491 1490 1489
1477 1478 1480 1481 1491 1494 1489 1486 1483 1484 1483 1478 1479 1477 1475 1475 1481 1477 1475 1468 1469 1471 1475 1480 1498 1510 1494 1482 1473 1478 1481 1493 1502 1511 1527 1530 1527 1498 1495 1495 1494 1493 1495 1495 1494
1477 1481 1483 1483 1483 1486 1487 1487 1484 1480 1479 1475 1473 1473 1476 1480 1477 1478 1474 1469 1469 1470 1472 1471 1492 1497 1516 1496 1487 1482 1479 1485 1490 1511 1520 1520 1511 1502 1499 1498 1499 1499 1500 1499 1498
1475 1476 1476 1484 1483 1483 1483 1485 1484 1481 1475 1476 1473 1469 1474 1482 1479 1480 1475 1470 1470 1468 1472 1473 1487 1490 1486 1484 1482 1482 1485 1480 1482 1491 1494 1497 1505 1502 1500 1501 1500 1500 1501 1501 1500
1474 1474 1475 1476 1478 1482 1485 1486 1483 1477 1475 1472 1474 1466 1461 1474 1469 1471 1464 1469 1467 1471 1472 1470 1486 1488 1483 1477 1479 1489 1486 1484 1488 1494 1499 1499 1501 1497 1499 1500 1501 1500 1501 1500 1501
1475 1474 1475 1476 1478 1482 1483 1478 1474 1472 1470 1465 1470 1474 1468 1460 1456 1456 1458 1460 1460 1464 1472 1477 1485 1491 1497 1490 1485 1496 1491 1488 1490 1490 1493 1500 1496 1495 1500 1501 1500 1501 1501 1502 1502
Wind_Speed
7 5 4 5 5 4 3 4 4 5 5 6 7 9 11 13 13 16 11 3 3 2 6 6 3 6 4 2 3 2 4 3 6 6 4 11 4 7 5 16 4 6 10 17 26
8 7 4 5 5 5 4 4 5 5 6 6 7 9 12 14 14 5 3 2 6 5 5 2 4 10 4 2 2 3 3 4 3 4 7 6 9 14 6 10 3 5 9 34 28
7 7 6 5 5 5 5 5 5 5 6 6 7 9 11 14 7 3 4 4 7 6 3 2 4 5 4 3 3 1 2 4 4 14 12 6 7 5 15 2 7 16 29 34 29
8 8 7 5 6 5 5 5 5 5 7 7 7 9 11 10 2 3 4 4 6 5 1 1 2 2 3 2 2 4 3 4 9 13 16 8 9 6 5 2 10 17 28 34 31
8 9 8 7 6 5 5 6 6 5 7 7 7 8 10 7 4 4 2 4 6 6 4 2 4 4 2 3 5 3 3 12 22 10 15 10 3 5 5 11 17 27 28 31 29
8 8 9 8 6 6 5 6 6 6 8 8 7 9 9 5 4 3 2 7 6 3 2 4 3 5 5 2 3 3 3 11 11 9 10 6 4 3 6 19 21 26 32 29 27
9 8 9 9 7 6 6 6 7 7 8 7 8 9 12 13 6 3 6 8 4 4 4 3 4 2 2 2 3 1 2 1 2 3 4 4 4 2 16 23 26 23 25 27 28
9 9 9 10 8 7 6 6 8 7 8 8 9 10 9 6 9 5 7 8 5 3 4 7 4 2 3 2 3 1 4 5 3 4 2 5 5 2 18 24 24 26 27 26 26
10 9 9 10 8 7 6 6 7 6 7 9 10 7 9 6 11 9 9 3 2 4 4 6 0 4 4 3 4 7 1 1 7 5 4 3 2 6 18 21 21 25 30 29 30
11 10 9 9 9 7 5 5 6 6 8 9 12 7 7 5 5 9 12 10 1 5 4 1 3 3 2 3 2 3 1 3 4 2 3 3 3 5 21 21 21 24 29 29 31
11 10 9 8 9 6 4 4 4 4 10 10 3 6 9 7 0 9 13 11 6 4 1 4 1 6 9 7 5 4 1 4 3 5 3 5 3 8 16 16 18 22 27 30 33
11 10 9 8 8 6 3 1 7 4 9 15 22 25 23 18 5 3 12 12 6 3 2 4 6 7 6 5 1 2 3 5 8 7 6 3 4 6 11 20 24 21 29 33 32
11 10 8 7 7 6 3 5 3 8 3 8 12 13 9 10 5 7 17 11 2 5 6 5 5 4 1 1 2 3 5 5 6 3 4 4 5 3 6 15 17 25 30 31 33
10 9 7 6 6 5 6 8 5 4 4 6 5 6 11 12 5 15 17 11 1 6 1 5 5 4 4 6 6 3 9 7 5 4 3 2 3 5 5 7 8 23 29 32 33
10 8 8 8 1 6 9 3 3 2 1 2 3 4 15 17 0 8 20 14 7 6 3 4 7 7 7 8 8 7 4 7 3 4 2 1 3 6 1 6 10 18 28 31 31
9 9 10 10 10 6 2 3 9 5 5 4 3 5 5 4 3 4 7 6 4 5 4 6 3 4 8 5 8 4 6 7 5 3 2 2 4 5 5 9 6 12 28 29 30
9 9 11 9 6 8 3 12 5 3 4 5 2 2 4 4 3 4 5 6 5 2 2 4 5 4 6 2 3 6 5 3 3 2 5 4 4 7 6 7 8 11 27 27 30
8 9 11 10 10 6 3 3 3 3 5 4 2 0 5 4 4 3 5 5 3 4 2 0 5 4 4 4 6 6 8 5 6 4 3 2 4 3 6 13 10 9 13 16 20
6 8 11 9 13 6 2 3 6 5 3 4 5 4 3 0 2 4 6 4 5 5 6 2 5 5 4 2 5 3 3 4 7 3 2 2 6 6 9 10 11 9 8 11 10
5 5 6 10 13 8 4 6 3 2 1 3 2 2 4 4 7 6 6 2 1 2 4 3 4 3 5 1 3 3 5 3 3 4 3 4 4 3 10 10 9 10 12 15 17
3 3 2 14 15 4 3 6 4 3 4 4 3 4 3 4 5 5 8 4 6 7 7 4 3 6 2 2 5 1 1 6 5 3 5 3 5 5 7 7 4 7 15 19 22
2 1 8 22 4 3 4 6 2 2 3 3 5 7 4 4 2 4 8 4 12 13 8 5 4 3 8 2 2 2 3 5 5 3 1 3 4 4 3 6 5 13 17 20 20
1 3 18 8 4 1 2 3 2 1 4 3 4 2 3 3 1 3 2 5 17 8 5 7 1 3 6 5 2 5 3 5 5 4 4 5 5 1 8 8 11 15 15 16 16
2 3 4 3 2 4 4 3 2 5 6 3 8 1 2 3 2 1 2 1 15 5 5 9 3 4 5 5 2 1 3 4 4 4 5 5 6 5 3 6 8 10 12 14 15
2 2 4 4 4 3 2 2 2 4 4 13 4 4 7 4 5 6 6 2 7 12 5 4 2 4 5 5 2 2 4 1 1 2 4 4 9 6 5 4 6 10 11 13 13
0 1 2 3 4 6 4 6 9 3 3 4 4 10 14 8 9 8 6 3 5 5 5 6 1 4 3 3 3 3 5 5 5 4 5 7 5 4 8 10 9 13 12 12 11
0 0 1 1 3 5 6 8 10 7 13 17 9 4 11 16 18 9 8 5 4 6 5 5 5 2 4 2 1 3 5 1 3 2 6 4 6 6 5 8 12 13 11 13 12
Wind_Direction
321 322 329 323 311 292 266 255 260 267 279 289 304 315 320 319 308 303 308 224 176 161 137 97 82 170 160 68 61 34 52 10 15 27 298 163 112 143 134 143 164 187 167 155 163
314 313 317 318 306 297 274 261 261 269 278 288 306 317 325 324 319 20 2 223 189 176 162 161 120 153 140 109 55 84 93 12 321 340 342 202 146 162 129 150 67 131 154 158 161
306 306 307 310 302 294 280 264 263 269 278 286 303 321 326 329 324 27 9 174 167 173 185 262 173 171 107 115 44 109 89 308 269 316 329 168 141 160 129 215 212 155 152 161 163
305 300 301 303 300 290 281 270 263 268 277 285 304 322 325 325 253 304 358 186 169 150 229 277 206 145 67 97 58 102 339 359 302 335 344 162 153 121 133 275 193 161 160 165 171
300 299 299 295 294 286 279 275 267 262 273 284 303 319 329 309 281 346 315 184 152 127 128 26 2 124 145 127 131 89 324 324 321 332 18 134 122 127 60 130 147 156 167 173 178
294 293 294 294 289 284 282 269 265 258 266 280 299 313 320 293 278 301 189 172 167 146 251 301 346 122 107 51 39 84 270 302 320 333 45 109 83 85 126 145 149 162 172 181 187
289 290 290 291 287 282 279 266 259 258 264 276 293 307 299 264 249 244 172 167 155 86 360 25 271 109 131 108 23 308 327 269 348 27 81 85 19 5 164 159 158 171 179 191 201
287 288 289 289 287 281 274 266 257 258 268 274 285 301 269 257 219 197 183 185 198 241 291 318 289 40 64 72 28 53 56 26 315 142 241 92 260 206 172 169 171 182 189 198 205
285 282 285 287 286 278 273 268 263 264 273 278 287 292 271 251 227 221 202 166 221 272 307 305 145 77 66 56 19 26 17 16 320 204 125 142 259 190 185 185 182 191 197 205 212
283 279 281 283 282 277 269 261 254 259 262 272 267 295 250 327 261 217 194 186 210 226 257 35 24 69 60 77 170 206 230 245 237 298 154 174 215 194 198 198 199 203 208 214 218
279 277 277 280 279 274 252 256 257 254 237 224 230 233 296 354 177 199 185 195 193 173 228 354 55 229 206 183 109 106 216 289 258 255 207 209 192 212 199 207 217 218 221 225 227
275 273 274 274 274 278 272 115 114 26 300 256 252 256 262 279 299 171 191 171 191 167 93 4 253 210 75 139 169 326 310 278 282 252 155 154 243 226 185 220 219 218 227 232 236
275 272 268 268 272 257 203 169 214 314 266 286 241 245 248 207 258 242 192 180 144 171 190 170 283 325 75 253 233 227 209 209 230 57 55 109 319 209 232 229 233 239 239 239 240
274 268 257 256 264 218 180 161 286 272 38 269 228 233 168 164 295 248 200 171 177 244 176 211 223 205 196 262 185 262 211 195 166 110 201 63 260 282 226 227 220 238 239 242 239
273 260 244 225 225 169 159 265 296 143 348 240 190 152 160 151 231 199 194 190 167 182 118 269 192 181 215 226 156 223 67 121 99 102 107 12 76 268 80 235 242 231 238 248 248
270 252 240 237 231 169 213 272 136 47 253 347 133 136 139 113 190 139 171 178 205 154 221 264 285 215 209 229 180 130 63 47 63 63 12 309 130 283 186 218 243 244 243 247 252
266 247 237 227 212 187 249 153 49 157 314 321 350 164 166 148 208 139 161 192 200 170 37 231 218 244 201 143 43 79 63 22 336 341 224 316 114 249 275 246 228 242 250 250 254
262 243 237 220 202 173 199 64 175 227 265 330 76 186 170 148 219 142 158 176 241 119 360 19 327 193 186 195 165 175 156 160 205 202 257 55 230 282 310 326 245 242 265 276 272
257 242 237 208 198 199 178 88 209 214 206 342 320 47 325 185 174 152 201 195 151 177 178 159 277 305 222 206 134 161 163 170 102 25 74 251 293 301 350 0 11 45 26 340 311
240 235 228 190 180 179 89 207 241 231 113 73 335 139 167 222 174 180 178 240 209 219 137 204 314 233 297 159 70 162 154 75 17 137 220 294 270 235 329 314 343 10 49 54 54
217 226 203 163 157 148 166 217 257 238 118 178 236 299 231 181 206 198 182 171 186 172 174 138 118 290 315 141 156 51 343 51 108 103 154 165 266 211 257 283 348 5 60 60 62
204 74 159 151 103 75 160 197 246 307 98 252 194 236 234 179 202 230 200 224 181 153 165 193 151 264 243 222 177 159 141 137 119 209 78 138 266 329 105 64 87 70 63 65 64
160 76 158 141 130 255 266 260 261 71 257 339 259 111 293 282 331 181 203 250 172 159 164 172 168 329 351 1 52 85 91 98 113 102 186 136 252 32 81 63 62 66 68 67 65
187 81 150 284 122 156 165 200 260 259 249 135 268 278 178 258 280 87 279 301 192 169 184 130 110 151 190 210 203 245 134 172 120 111 170 210 170 209 133 108 69 84 92 81 70
214 208 169 198 266 201 59 201 135 259 227 203 279 261 199 263 170 214 224 266 152 178 183 151 152 190 238 248 218 348 23 23 303 125 155 196 158 190 172 136 106 115 105 92 81
246 127 151 126 141 139 155 213 206 222 209 269 175 324 307 217 215 204 156 196 198 155 206 13 186 186 321 65 141 85 36 65 65 115 63 121 110 144 128 131 138 141 132 120 117
200 206 247 93 94 121 209 208 226 98 288 256 196 190 263 235 249 208 184 166 169 159 181 135 157 94 263 3 204 345 342 38 107 56 143 146 197 150 128 147 154 154 153 148 140